(205494) = 2001 QH294

Discovered at Anderson Mesa on 2001-08-24 by LONEOS.

Orbit

Orbit type: Main Belt

Note: WebGL enabled browser required.

epoch2024-03-31.0
epoch JD2460400.5
perihelion date2022-01-09.11192
perihelion JD2459588.61192
argument of perihelion (°)94.15566
ascending node (°)210.60375
inclination (°)2.89082
eccentricity0.2186310
perihelion distance (AU)2.3178877
Tisserand w.r.t. Jupiter3.2
ΔV w.r.t. Earth (km/sec)9.7
semimajor axis (AU)2.9664445
mean anomaly (°)156.61944
mean daily motion (°/day)0.19290770
aphelion distance (AU)3.615
period (years)5.11
P-vector [x]0.56948557
P-vector [y]-0.77276645
P-vector [z]-0.28021097
Q-vector [x]0.82160024
Q-vector [y]0.52446656
Q-vector [z]0.22340069
absolute magnitude16.38
phase slope0.15
uncertainty0
referenceMPEC 2024-C163
observations used367
oppositions18
arc length (days)8593
first opposition used2000
last opposition used2023
residual rms (arc-secs)0.78
perturbers coarse indicatorM-v
perturbers precise indicator003Ek
first observation date used2000-04-05.0
last observation date used2023-10-15.0
computer nameMPCLINUX
JD of orbit computation2456671.063002
perihelion JD uncertainty (days)1.7495E-04
argument of perihelion uncertainty (°)1.2702E-04
ascending node uncertainty (°)1.2531E-04
inclination uncertainty (°)7.8781E-06
eccentricity uncertainty 7.0125E-08
perihelion distance uncertainty (AU)1.9102E-07
Minimum Orbit Intersection Distances (in AU)
for orbit epoch: 2460200.5, reference: E2024-CG3
Mercury1.88589
Venus1.59589
Earth1.30593
Mars0.92414
Jupiter1.64736
Saturn5.50246
Uranus14.937
Neptune26.5858

Observations

374 total observations over interval: 2000 04 05.18902 – 2023 10 15.596824
These data are available for download (format description).

Date (UT) J2000 RA J2000 Dec Magn Location Ref
2000 04 05.18902 12 39 36.74 -05 47 37.7 20.1 V 691 – Steward Observatory, Kitt Peak-Spacewatch MPS 233310
2000 04 05.21004 12 39 35.88 -05 47 32.3 20.9 V 691 – Steward Observatory, Kitt Peak-Spacewatch MPS 233310
2000 04 05.23115 12 39 34.89 -05 47 25.1 21.0 V 691 – Steward Observatory, Kitt Peak-Spacewatch MPS 233310
2001 08 24.20623 21 02 09.84 -12 01 07.5 19.2 R 699 – Lowell Observatory-LONEOS MPS 36188
2001 08 24.23212 21 02 08.87 -12 01 14.2   699 – Lowell Observatory-LONEOS MPS 36188
2001 08 24.25797 21 02 07.91 -12 01 20.1   699 – Lowell Observatory-LONEOS MPS 36188
2001 08 24.28367 21 02 06.82 -12 01 27.2   699 – Lowell Observatory-LONEOS MPS 36188
2001 08 28.15339 20 59 51.46 -12 16 53.2 20.1   644 – Palomar Mountain/NEAT MPS 36189
2001 08 28.17457 20 59 50.72 -12 16 57.9 19.5   644 – Palomar Mountain/NEAT MPS 36189
2001 08 28.19809 20 59 49.89 -12 17 03.7 19.8   644 – Palomar Mountain/NEAT MPS 36189
2004 01 18.23420 08 27 41.51 +15 03 16.6 22.1 V 691 – Steward Observatory, Kitt Peak-Spacewatch MPS 233310
2004 01 18.26666 08 27 39.92 +15 03 21.9 22.6 V 691 – Steward Observatory, Kitt Peak-Spacewatch MPS 233310
2004 01 18.30048 08 27 38.22 +15 03 27.3 22.5 V 691 – Steward Observatory, Kitt Peak-Spacewatch MPS 233310
2005 03 13.27583 12 17 36.13 -04 10 34.4 21.1 V 691 – Steward Observatory, Kitt Peak-Spacewatch MPS 233310
2005 03 13.31132 12 17 34.57 -04 10 23.8 20.7 V 691 – Steward Observatory, Kitt Peak-Spacewatch MPS 233310
2005 03 13.33896 12 17 33.33 -04 10 15.3 20.6 V 691 – Steward Observatory, Kitt Peak-Spacewatch MPS 233310
2005 04 05.32366 12 00 13.70 -02 02 44.9 20.3 R G96 – Mt. Lemmon Survey MPS 233310
2005 04 05.32896 12 00 13.48 -02 02 43.0 20.2 R G96 – Mt. Lemmon Survey MPS 233310
2005 04 05.33422 12 00 13.24 -02 02 41.4 20.0 R G96 – Mt. Lemmon Survey MPS 233310
2005 04 05.33951 12 00 12.98 -02 02 39.0 20.0 R G96 – Mt. Lemmon Survey MPS 233310
2006 05 30.37979 20 12 32.54 -15 53 00.4 19.9 V G96 – Mt. Lemmon Survey MPS 233310
2006 05 30.38532 20 12 32.61 -15 52 59.6 19.9 V G96 – Mt. Lemmon Survey MPS 233310
2006 05 30.39093 20 12 32.65 -15 52 58.7 20.0 V G96 – Mt. Lemmon Survey MPS 233310
2006 05 30.39652 20 12 32.72 -15 52 57.8 20.1 V G96 – Mt. Lemmon Survey MPS 233310
2006 06 18.41605 20 11 33.93 -15 21 03.5 20.0 R 644 – Palomar Mountain/NEAT MPS 233310
2006 06 18.42670 20 11 33.72 -15 21 03.0 20.1 R 644 – Palomar Mountain/NEAT MPS 233310
2006 06 18.43969 20 11 33.44 -15 21 02.0 19.5 R 644 – Palomar Mountain/NEAT MPS 233310
2006 07 26.17945 19 46 42.20 -16 01 47.4 18.5 R 644 – Palomar Mountain/NEAT MPS 233310
2006 07 26.20013 19 46 41.22 -16 01 50.5 19.3 R 644 – Palomar Mountain/NEAT MPS 233310
2006 07 26.22081 19 46 40.23 -16 01 53.3 18.7 R 644 – Palomar Mountain/NEAT MPS 233310
2007 09 10.44958 04 04 15.31 +20 04 08.6 21.6 V G96 – Mt. Lemmon Survey MPS 233310
2007 09 10.45869 04 04 15.52 +20 04 08.3 21.5 V G96 – Mt. Lemmon Survey MPS 233310
2007 09 10.46787 04 04 15.74 +20 04 08.0 21.6 V G96 – Mt. Lemmon Survey MPS 233310
2007 09 10.47698 04 04 15.88 +20 04 07.9 22.2 V G96 – Mt. Lemmon Survey MPS 233310
2007 09 18.42582 04 06 40.93 +20 03 31.4 21.0 V G96 – Mt. Lemmon Survey MPS 233310
2007 09 18.43125 04 06 41.00 +20 03 31.4 21.4 V G96 – Mt. Lemmon Survey MPS 233310
2007 09 18.43677 04 06 41.11 +20 03 31.6 21.1 V G96 – Mt. Lemmon Survey MPS 233310
2007 09 18.44223 04 06 41.18 +20 03 31.3 21.4 V G96 – Mt. Lemmon Survey MPS 233310
2007 10 30.43043 03 54 17.78 +18 46 21.5 20.5 V G96 – Mt. Lemmon Survey MPS 233310
2007 10 30.44336 03 54 17.20 +18 46 19.1 20.4 V G96 – Mt. Lemmon Survey MPS 233310
2007 10 30.45638 03 54 16.59 +18 46 16.4 20.4 V G96 – Mt. Lemmon Survey MPS 233310
2007 10 30.46919 03 54 16.05 +18 46 14.1 21.1 V G96 – Mt. Lemmon Survey MPS 233310
2007 11 08.20372 03 47 15.11 +18 16 37.7   691 – Steward Observatory, Kitt Peak-Spacewatch MPS 233310
2007 11 08.22139 03 47 14.21 +18 16 34.1   691 – Steward Observatory, Kitt Peak-Spacewatch MPS 233310
2007 11 08.23905 03 47 13.25 +18 16 30.3   691 – Steward Observatory, Kitt Peak-Spacewatch MPS 233310
2007 11 19.18166 03 37 38.33 +17 36 37.3   691 – Steward Observatory, Kitt Peak-Spacewatch MPS 233310
2007 11 19.19926 03 37 37.36 +17 36 33.9   691 – Steward Observatory, Kitt Peak-Spacewatch MPS 233310
2007 11 19.21688 03 37 36.40 +17 36 29.5   691 – Steward Observatory, Kitt Peak-Spacewatch MPS 233310
2008 12 30.28784 08 08 33.64 +16 12 11.1 22.4 V G96 – Mt. Lemmon Survey MPS 270020
2008 12 30.29677 08 08 33.28 +16 12 11.4 21.9 V G96 – Mt. Lemmon Survey MPS 270020
2008 12 30.30567 08 08 32.89 +16 12 13.6 21.5 V G96 – Mt. Lemmon Survey MPS 270020
2008 12 30.31707 08 08 32.42 +16 12 13.1 22.4 V G96 – Mt. Lemmon Survey MPS 270020
2009 01 18.31002 07 53 10.10 +16 51 48.7 21.1 V G96 – Mt. Lemmon Survey MPS 272233
2009 01 18.31610 07 53 09.78 +16 51 50.1 21.1 V G96 – Mt. Lemmon Survey MPS 272233
2009 01 18.32230 07 53 09.42 +16 51 50.6 21.0 V G96 – Mt. Lemmon Survey MPS 272233
2009 01 18.32850 07 53 09.06 +16 51 51.6 20.9 V G96 – Mt. Lemmon Survey MPS 272233
2010 03 13.20533 11 37 38.60 -00 19 49.2 20.9 V 691 – Steward Observatory, Kitt Peak-Spacewatch MPS 319163
2010 03 13.22294 11 37 37.75 -00 19 44.0 20.8 V 691 – Steward Observatory, Kitt Peak-Spacewatch MPS 319163
2010 03 13.24055 11 37 36.97 -00 19 38.1 20.8 V 691 – Steward Observatory, Kitt Peak-Spacewatch MPS 319164
2010 03 13.31513 11 37 33.42 -00 19 13.7 20.7 V G96 – Mt. Lemmon Survey MPS 319164
2010 03 13.32543 11 37 32.95 -00 19 10.5 20.7 V G96 – Mt. Lemmon Survey MPS 319164
2010 03 13.33575 11 37 32.44 -00 19 07.3 20.7 V G96 – Mt. Lemmon Survey MPS 319164
2010 03 13.34615 11 37 31.98 -00 19 03.6 20.8 V G96 – Mt. Lemmon Survey MPS 319164
2010 03 17.475022 11 34 21.925 +00 03 36.70 21.32 g F51 – Pan-STARRS 1, Haleakala MPS 338789
2010 03 17.484543 11 34 21.469 +00 03 39.80 21.49 g F51 – Pan-STARRS 1, Haleakala MPS 338789
2010 03 21.27522 11 31 27.76 +00 24 42.5 21.1 V G96 – Mt. Lemmon Survey MPS 320538
2010 03 21.28713 11 31 27.22 +00 24 46.6 20.7 V G96 – Mt. Lemmon Survey MPS 320538
2010 03 21.29315 11 31 26.94 +00 24 48.6 20.6 V G96 – Mt. Lemmon Survey MPS 320538
2012 10 08.44310 03 18 24.30 +17 39 03.1 21.2 V G96 – Mt. Lemmon Survey MPS 434793
2012 10 08.45112 03 18 24.01 +17 39 01.4 20.6 V G96 – Mt. Lemmon Survey MPS 434793
2012 10 08.45913 03 18 23.76 +17 39 00.0 21.2 V G96 – Mt. Lemmon Survey MPS 434793
2012 10 08.46718 03 18 23.50 +17 38 58.4 21.4 V G96 – Mt. Lemmon Survey MPS 434793
2012 10 16.30703 03 13 41.71 +17 12 59.3 20.7 V 691 – Steward Observatory, Kitt Peak-Spacewatch MPS 437459
2012 10 16.32470 03 13 40.94 +17 12 56.8 20.7 V 691 – Steward Observatory, Kitt Peak-Spacewatch MPS 437459
2012 10 16.34237 03 13 40.26 +17 12 51.8 20.8 V 691 – Steward Observatory, Kitt Peak-Spacewatch MPS 437459
2012 10 18.397512 03 12 14.854 +17 05 13.57 20.7 w F51 – Pan-STARRS 1, Haleakala MPS 437459
2012 10 18.412655 03 12 14.187 +17 05 10.26 20.5 w F51 – Pan-STARRS 1, Haleakala MPS 437459
2012 10 18.443122 03 12 12.844 +17 05 03.42 20.6 w F51 – Pan-STARRS 1, Haleakala MPS 437459
2012 10 27.31427 03 05 22.02 +16 28 50.7 20.5 V G96 – Mt. Lemmon Survey MPS 441248
2012 10 27.31823 03 05 21.80 +16 28 49.9 20.6 V G96 – Mt. Lemmon Survey MPS 441248
2012 10 27.32224 03 05 21.58 +16 28 48.4 19.9 V G96 – Mt. Lemmon Survey MPS 441248
2012 10 27.32631 03 05 21.37 +16 28 47.7 20.3 V G96 – Mt. Lemmon Survey MPS 441248
2012 11 04.43944 02 58 29.02 +15 52 39.9 20.0 V G96 – Mt. Lemmon Survey MPS 441248
2012 11 04.44652 02 58 28.66 +15 52 37.8 20.3 V G96 – Mt. Lemmon Survey MPS 441248
2012 11 04.45353 02 58 28.30 +15 52 35.6 19.8 V G96 – Mt. Lemmon Survey MPS 441248
2012 11 04.46058 02 58 27.91 +15 52 34.4 20.4 V G96 – Mt. Lemmon Survey MPS 441248
2012 11 07.27825 02 56 02.36 +15 39 45.3 20.1 V G96 – Mt. Lemmon Survey MPS 441248
2012 11 07.28382 02 56 02.04 +15 39 43.5 20.2 V G96 – Mt. Lemmon Survey MPS 441248
2012 11 07.28935 02 56 01.78 +15 39 42.1 20.1 V G96 – Mt. Lemmon Survey MPS 441248
2012 11 07.29495 02 56 01.46 +15 39 40.6 20.1 V G96 – Mt. Lemmon Survey MPS 441248
2012 11 14.23719 02 50 07.98 +15 08 23.6 20.2 V G96 – Mt. Lemmon Survey MPS 443148
2012 11 14.24331 02 50 07.62 +15 08 22.4 20.0 V G96 – Mt. Lemmon Survey MPS 443148
